Hourly Data Report for June 05, 2020

OTTAWA INTL A
ONTARIO
Current Station Operator: NAVCAN

45°19'00.000" N
75°40'00.000" W
114.90 m
6106001
71628
YOW

Download Data

Hourly Data (June 2020)
Hourly Data Report for June 5, 2020
TIME
LST
Temp Definition
°C
Dew Point Definition
°C
Rel Hum Definition
%
Precip. Amount Definition
mm

Wind Dir Definition
10's deg

Wind Spd Definition
km/h
Visibility Definition
km
Stn Press Definition
kPa
Hmdx Definition


Wind Chill Definition


Weather Definition


00:00 16.1 10.7 70   4 15 24.1 99.52     LegendNANA
01:00 16.4 9.8 65   5 15 24.1 99.50     Mainly Clear
02:00 15.2 9.6 69   5 10 24.1 99.45     LegendNANA
03:00 12.9 9.4 79   7 5 24.1 99.45     LegendNANA
04:00 12.9 9.6 80   6 6 24.1 99.48     Mostly Cloudy
05:00 13.7 11.8 88   18 11 24.1 99.49     LegendNANA
06:00 15.8 13.4 86   27 12 24.1 99.53     LegendNANA
07:00 17.6 13.8 78   25 17 24.1 99.58     Clear
08:00 20.0 11.8 59   28 16 24.1 99.59     LegendNANA
09:00 21.4 11.9 54   26 14 24.1 99.57     LegendNANA
10:00 23.2 12.6 51   29 10 24.1 99.62 26   Clear
11:00 25.3 11.6 42   31 9 24.1 99.59 27   LegendNANA
12:00 26.7 10.2 35   32 12 24.1 99.61 28   LegendNANA
13:00 27.8 11.3 35   22 12 24.1 99.55 30   Mainly Clear
14:00 28.7 9.7 30   30 10 24.1 99.51 30   LegendNANA
15:00 27.9 8.4 29   23 11 24.1 99.45 28   LegendNANA
16:00 28.1 10.1 32   29 4 24.1 99.40 29   Mostly Cloudy
17:00 28.7 12.6 36   36 1 24.1 99.34 31   LegendNANA
18:00 23.4 14.8 58   24 24 24.1 99.39 27   Moderate Rain Showers
19:00 18.0 16.5 91   9 11 4.8 99.42     Thunderstorms,Moderate Rain Showers
20:00 18.4 17.2 93   16 9 24.1 99.36     LegendNANA
21:00 17.9 17.1 95   14 9 24.1 99.37     LegendNANA
22:00 17.8 16.5 92   15 10 24.1 99.34     Rain Showers
23:00 18.0 17.0 94   5 10 24.1 99.35     LegendNANA

Notes on Data Quality.

Legend

  • E = Estimated
  • M = Missing
  • NA = Not Available*
  • [empty] = Indicates an unobserved value
Date modified: